Regional Weather Roundup
Issued by NWS

Home | Current Version | Previous Version | Graphics & Text | Print | Product List | Glossary On
Versions: 1 2 3 4 5 6 7 8 9 10 11 12 13 14 15 16 17 18 19 20 21 22 23 24 25 26 27 28 29 30 31 32 33 34 35 36 37 38 39 40 41 42 43 44 45 46 47 48 49 50
000
ASUS43 KIND 171959
RWRIN

WEATHER ROUNDUP FOR INDIANA
NATIONAL WEATHER SERVICE INDIANAPOLIS IN
300 PM EST WED DEC 17 2014

NOTE: "FAIR" INDICATES FEW OR NO CLOUDS BELOW 12,000 FEET WITH NO
SIGNIFICANT WEATHER AND/OR OBSTRUCTIONS TO VISIBILITY.

* - STATION DOES NOT REPORT WEATHER SUCH AS PRECIPITATION OR FOG.

+ - STATION NOT QUALITY CONTROLLED BY THE NATIONAL WEATHER SERVICE.
    USE DATA WITH CAUTION...ESPECIALLY DEWPOINT AND RELATIVE
    HUMIDITY OBSERVATIONS.

INZ001>003-010>013-019-020-172100-
NORTHWEST INDIANA

CITY           SKY/WX    TMP DP  RH WIND       PRES   REMARKS
VALPARAISO     NOT AVBL

$$

LMZ046-743>745-172100-
SOUTHERN LAKE MICHIGAN

STATION/POSITION TIME  TEMP WIND        PRES
                       AIR  DIR/SP/G
                 (UTC) (F)  (DEG/KT/KT) (MB)

$$

INZ004-005-014>016-021>024-172100-
NORTH CENTRAL INDIANA

CITY           SKY/WX    TMP DP  RH WIND       PRES   REMARKS
ELKHART        CLOUDY    28  19  69 W9        30.17S WCI  20
GOSHEN         CLOUDY    27  21  78 W14       30.16S WCI  16
SOUTH BEND     CLOUDY    28  20  71 W12       30.18S WCI  18

$$

INZ006>009-017-018-025>027-172100-
NORTHEAST INDIANA

CITY           SKY/WX    TMP DP  RH WIND       PRES   REMARKS
ANGOLA *+      CLOUDY    27  21  80 W12       30.12S WCI  16
FORT WAYNE     FLURRIES  27  22  81 W16       30.18R WCI  15

$$

INZ028-029-035-036-043>045-051>053-172100-
WEST CENTRAL INDIANA

CITY           SKY/WX    TMP DP  RH WIND       PRES   REMARKS
GREENCASTLE +  CLOUDY    27  19  74 NW6       30.24S WCI  20
LAFAYETTE      CLOUDY    24  19  81 NW12      30.24F WCI  13
TERRE HAUTE    CLOUDY    27  21  78 W8        30.27S WCI  19

$$

INZ030>032-037>040-046>048-054>057-064-065-172100-
CENTRAL INDIANA

CITY           SKY/WX    TMP DP  RH WIND       PRES   REMARKS
ANDERSON       CLOUDY    25  21  86 W12G17    30.21F WCI  14
INDIANAPOLIS   CLOUDY    25  20  81 NW9       30.22S WCI  15
-EAGLE CREEK   CLOUDY    25  21  85 W12       30.22S WCI  14
KOKOMO *+      CLOUDY    25  19  80 W16       30.22S WCI  12
MT COMFORT *+  CLOUDY    27  21  80 NW10      30.22S WCI  17
SHELBYVILLE    CLOUDY    28  22  78 NW12      30.21F WCI  18

$$

INZ033-034-041-042-049-050-058-059-172100-
EAST CENTRAL INDIANA

CITY           SKY/WX    TMP DP  RH WIND       PRES   REMARKS
MUNCIE         CLOUDY    25  22  88 NW10      30.20S WCI  15

$$

INZ060-061-067>069-081>083-085>088-172100-
SOUTHWEST INDIANA

CITY           SKY/WX    TMP DP  RH WIND       PRES   REMARKS
EVANSVILLE     CLOUDY    36  25  64 W7        30.28S
HUNTINGBURG *+ CLOUDY    34  25  69 NW6       30.26S WCI  29

$$

INZ062-063-066-070>080-084-089>092-172100-
SOUTH CENTRAL AND SOUTHEAST INDIANA

CITY           SKY/WX    TMP DP  RH WIND       PRES   REMARKS
BLOOMINGTON    CLOUDY    27  22  81 W9        30.23F WCI  18

$$




USA.gov is the U.S. government's official web portal to all federal, state and local government web resources and services.